User: anonymous   Login
Location: Unspecified
(0.0000°N, 0.0000°E)
Time: 07:18:27
(UTC+02:00)
Language:

Cosmos 407 Rocket - Orbit

View from above orbital plane
View from above orbital plane
View from above satellite
View from above satellite

Ground track
Ground track

The orbit data is extracted from the following two-line orbital elements,

1  5175U 71035B   17233.59615342 -.00000001 +00000-0 +83082-5 0  9993
2  5175 074.0470 088.8193 0030908 281.0762 078.6917 14.37866960424092
Epoch (UTC): 21 August 2017 14:18:27
Eccentricity: 0.0030908
inclination: 74.0470°
perigee height: 743 km
apogee height: 787 km
right ascension of ascending node: 88.8193°
argument of perigee: 281.0762°
revolutions per day: 14.37866960
mean anomaly at epoch: 78.6917°
orbit number at epoch: 42409

The dashed part of the orbit path shows where the satellite is in the earth's shadow,  

DLR